Location: Gro�wechsungen
(51.4926°N, 10.6901°E)
Time: 01:35:00
(UTC+00:00)

SL-08 RB Rocket - Pass Details

Date: 18 September 2020
Orbit: 646 x 685 km, 97.8° (Epoch: 23 October)

Event Time Altitude Azimuth Distance (km) Brightness Sun altitude
Rises 17:55:22 0° 141° (SE) 3,018 6.6 -5.7°
Reaches altitude 10° 17:57:42 10° 134° (SE) 2,103 5.8 -6.1°
Maximum altitude 18:01:56 38° 67° (ENE) 1,020 4.3 -6.7°
Drops below altitude 10° 18:06:10 10° 359° (N) 2,094 6.4 -7.3°
Sets 18:08:30 0° 352° (N) 3,005 7.4 -7.7°
